x

Great Slave Lake (45141) Wave Buoy

7:00am - Tue 30th Aug 2016 All times are UTC.

  • Sig Wave height 0.7ft
  • Peak Period 15s
  • Wind
    9mph, 11mph gusts
  • Sea Temp 59°f
  • Air Temp 56°f
  • Sea Pressure 1027.4mb

More Historic Weather Station data

Upgrade to MSW Pro to gain access to the past 30 days of data for over 8000 Wavebouys and Weather Stations around the globe.

Join Pro

Comparision Forecast

View Surf forecast
   
Tue 08/30 7:00am 0.7ft 15s 9 11 mph 1027.4mb 59f 56f
6:00am 1ft 14s 9 11 mph 1027.3mb 59f 56f
5:00am 1ft 14s 9 11 mph 1027.2mb 59f 56f
4:00am 1ft 15s 7 9 mph 1027.1mb 60f 56f
3:00am 1ft 15s 7 9 mph 1026.8mb 60f 56f
1:00am 1.3ft 14s 9 11 mph 1026.2mb 60f 57f
12:00am 1.3ft 15s 9
mph
1026.3mb 60f 56f
Mon 08/29 11:00pm 1.6ft 15s 9 11 mph 1026mb 60f 56f
10:00pm 1.6ft 15s 7 9 mph 1026.2mb 60f 56f
9:00pm  -   -  11
mph
1026.1mb - 55f
7:00pm 2ft 14s 13 16 mph 1025.3mb 60f 54f
6:00pm  -   -  11
mph
1025.1mb - 54f
4:00pm 2.5ft 15s 13 16 mph 1024.8mb 60f 53f
3:00pm 2ft 4s 16 18 mph 1024.2mb 60f 54f
2:00pm 2ft 15s 13 16 mph 1023.9mb 60f 54f
1:00pm 2ft 14s 11 18 mph 1023.3mb 60f 54f
12:00pm  -   -  11
mph
1023.1mb - 54f
11:00am 2ft 3s 11 13 mph 1023mb 60f 54f
10:00am 1.6ft 14s 11 16 mph 1022.9mb 60f 54f
9:00am 2ft 14s 11 16 mph 1022.5mb 60f 54f
8:00am 2ft 3s 13 16 mph 1022.1mb 60f 54f
7:00am 2ft 15s 13 16 mph 1021.8mb 60f 54f
6:00am 1.6ft 15s 13 18 mph 1021.7mb 60f 54f
5:00am 1ft 15s 13 18 mph 1021.6mb 60f 54f
4:00am 1ft 14s 9 13 mph 1021.6mb 60f 55f
3:00am 1ft 15s 9 11 mph 1021.5mb 60f 54f
2:00am 1.3ft 14s 9 11 mph 1021.4mb 60f 54f
1:00am 1.6ft 14s 9 11 mph 1021.4mb 60f 54f
12:00am 2ft 15s 11 13 mph 1021.1mb 60f 54f
Sun 08/28 11:00pm 1.6ft 14s 9 13 mph 1020.9mb 60f 53f
10:00pm 1.6ft 15s 11 13 mph 1020.8mb 60f 53f
9:00pm 2ft 15s 9 13 mph 1020.9mb 60f 51f
8:00pm 2.5ft 15s 11 16 mph 1020.4mb 60f 52f
7:00pm 2.5ft 15s 13 16 mph 1020.3mb 60f 52f
6:00pm 3ft 4s 13 18 mph 1020mb 60f 51f
3:00pm 4ft 5s 18
mph
1018.9mb 60f 51f
1:00pm 4ft 4s 20 25 mph 1018.2mb 60f 52f
12:00pm 4.5ft 5s 18 22 mph 1017.9mb 60f 52f
11:00am 4.5ft 5s 20 25 mph 1017.5mb 60f 53f
9:00am 3.5ft 4s 20 25 mph 1016.8mb 60f 53f
8:00am 3.5ft 4s 16 20 mph 1016.8mb 60f 52f
7:00am  -   -  20
mph
- - -
6:00am 4.5ft 5s 20 22 mph 1015.9mb 60f 53f
4:00am  -   -  22
mph
1015.4mb 60f 54f
3:00am 4.5ft 5s 22 27 mph 1015.3mb 60f 55f
2:00am 4ft 5s 22 27 mph 1015.1mb 61f 55f
1:00am 4ft 5s 20 25 mph 1014.7mb 61f 54f
12:00am 4ft 4s 20 25 mph 1014.4mb 61f 54f
Sat 08/27 11:00pm 3.5ft 5s 20 22 mph 1014.1mb 61f 54f
10:00pm  -   -  16
mph
1013.9mb - 55f
9:00pm 3.5ft 5s 16 20 mph 1013.6mb 61f 55f
8:00pm 4ft 5s 16 20 mph 1013.4mb 61f 55f
7:00pm 4ft 6s 18 22 mph 1012.9mb 61f 55f
6:00pm 4.5ft 6s 18 22 mph 1012.4mb 61f 55f
5:00pm 4.5ft 5s 18 22 mph 1012mb 61f 56f
4:00pm  -   -  18
mph
- - -
3:00pm 4.5ft 6s 18 22 mph 1011.3mb 61f 57f
1:00pm 3.5ft 5s 18 22 mph 1010.5mb 61f 58f
11:00am 4.5ft 6s 16 18 mph 1010.3mb 61f 57f
10:00am  -   -  18
mph
1009.7mb - 58f
9:00am 5ft 5s 22 25 mph 1009.2mb 61f 58f
8:00am 4.5ft 6s 22 25 mph 1008.9mb 61f 59f
7:00am 5ft 5s 20 22 mph 1008.5mb 62f 60f
6:00am  -   -  20
mph
- - -
5:00am 5ft 5s 20 25 mph 1008.1mb 62f 61f
4:00am 4.5ft 4s 22 27 mph 1007.4mb 62f 62f
1:00am 3ft 4s 18 22 mph 1006.6mb 62f 62f
12:00am  -   -  18
mph
1006.7mb 62f 62f
Fri 08/26 11:00pm 2.5ft 3s 18 22 mph 1006.8mb 62f 62f
10:00pm 2ft 15s 18 20 mph 1007.1mb 62f 62f
9:00pm 1.6ft 15s 13 16 mph 1007.4mb 62f 62f
8:00pm 1ft 15s 13 16 mph 1007.5mb 62f 62f
7:00pm 0.7ft 15s 13
mph
1007.6mb 62f 62f
6:00pm 0.7ft 2s 11 13 mph 1008mb 62f 61f
5:00pm 0.3ft 2s 11
mph
1008.5mb 62f 61f
4:00pm 0.3ft 3s 9 11 mph 1009.1mb 62f 62f
3:00pm 0.3ft 3s 9
mph
1009.5mb 62f 62f
2:00pm 0.7ft 15s 7
mph
1010mb 62f 62f
1:00pm 1ft 3s 7
mph
1010.6mb 62f 61f
12:00pm 1.3ft 15s 7
mph
1011.1mb 62f 61f
11:00am 1.6ft 3s 7 9 mph 1011.5mb 62f 62f
10:00am 2ft 15s 11 13 mph 1012mb 62f 62f